Regional Weather Roundup
Issued by NWS

Home | Current Version | Previous Version | Text Only | Print | Product List | Glossary On
Versions: 1 2 3 4 5 6 7 8 9 10 11 12 13 14 15 16 17 18 19 20 21 22 23 24 25 26 27
000
ASUS42 KTBW 272117
RWRFL
FLORIDA REGIONAL WEATHER ROUNDUP
NATIONAL WEATHER SERVICE TAMPA BAY RUSKIN FL
500 PM EDT THU APR 27 2017

NOTE: "FAIR" INDICATES FEW OR NO CLOUDS BELOW 12,000 FEET WITH NO
SIGNIFICANT WEATHER AND/OR OBSTRUCTIONS TO VISIBILITY.

FLZ001>010-012>015-112-114-115-272200-
PANHANDLE FLORIDA

CITY           SKY/WX    TMP DP  RH WIND       PRES   REMARKS
PENSACOLA      PTSUNNY   83  72  69 SW17      29.81S
PENSACOLA NAS  CLOUDY    80  73  79 SW15      29.81S
MILTON NAS     PTSUNNY   84  73  69 S14G22    29.80S
CRESTVIEW      PTSUNNY   83  70  64 S16       29.83S
DUKE FIELD     PTSUNNY   81  71  72 SW15      29.82S
VALPARAISO     PTSUNNY   80  73  80 S13G20    29.82F FOG
MARY ESTHER    PTSUNNY   80  70  71 S15       29.81F
PANAMA CITY    CLOUDY    79  73  82 S15       29.85F
TYNDALL AFB    PTSUNNY   80  73  78 S14       29.86F
APALACHICOLA   MOSUNNY   81  76  84 S12       29.88F

STATION/POSITION SKY/WX   TEMP    WIND        PRES    WAVE   SWELL
                          AIR SEA DIR/SP/G            HT/PER HT/PER
                          (F)     (DEG/KT/KT) (MB)    (FT/S) (FT/S)
30.1N   87.6W              76 75  200/ 12/ 14 1009.0F   4/ 7   3/ 7
29.2N   88.2W              76 76  210/  8/ 10 1009.5F   5/ 7   5/ 7
28.8N   86.0W              76 75  180/ 10/ 12 1010.9F   4/ 6   3/ 6
PANAMA CITY BEAC           75 76  170/ 12/ 14 1011.1F
TOWER C                    74     190/ 11/ 12 1012.7R
28.5N   84.5W              75 74  180/  8/  8 1012.2F   4/ 6   3/ 6

$$
FLZ011-016>038-118-127-128-134-139-239-272200-
NORTH FLORIDA

CITY           SKY/WX    TMP DP  RH WIND       PRES   REMARKS
MARIANNA       CLOUDY    79  74  84 SW9       29.83F
TALLAHASSEE    PTSUNNY   87  70  56 S12G25    29.87S
PERRY          MOSUNNY   83  69  61 SW18G25   29.92S
CROSS CITY     SUNNY     86  68  54 SW15      29.91S
LAKE CITY      FAIR      88  63  42 W16       29.89S
GAINESVILLE    CLOUDY    89  62  40 W10       29.87S
WILLISTON      SUNNY     93  66  40 SW15G24   29.88S HX  96
PALATKA        LGT RAIN  91  63  38 S6        29.87F
MAYPORT NAS    PTSUNNY   82  66  58 SE20G29   29.88F
JACKSONVILLE   PTSUNNY   90  61  37 S10       29.85F
JAX NAS        PTSUNNY   91  61  36 S10       29.87S
FERNANDINA BEA FAIR      86  68  54 SE17G23   29.87F
ST AUGUSTINE   MOSUNNY   84  71  65 SE14      29.90S
PALM COAST     MOSUNNY   86  70  58 SE16      29.88F

STATION/POSITION SKY/WX   TEMP    WIND        PRES    WAVE   SWELL
                          AIR SEA DIR/SP/G            HT/PER HT/PER
                          (F)     (DEG/KT/KT) (MB)    (FT/S) (FT/S)
SHELL POINT      NOT AVBL
KEATON BEACH               76     190/ 11/ 13 1013.0R
CEDAR KEY                  78     260/  6/  9 1013.3S
FERNANDINA                 83 77  140/ 10/ 20 1012.3F
30.7N   81.3W                 74                N/A     3/ 4   2/13
MAYPORT                    82 76  150/ 10/ 16 1012.1F
31.4N   80.9W              74 73  150/ 16/ 17 1011.7F   3/ 8   2/ 8
ST AUGUSTINE               76 78  160/ 15/ 16 1013.1R

$$
FLZ040-043>046-052-053-057-058-063-144-272200-
INTERIOR CENTRAL FLORIDA

CITY           SKY/WX    TMP DP  RH WIND       PRES   REMARKS
OCALA          MOSUNNY   91  64  40 W12G18    29.88S
THE VILLAGES     N/A     93  61  33 MISG      29.77F
LEESBURG       SUNNY     92  63  38 S8        29.88F
SANFORD        SUNNY     94  55  26 S7        29.87F
ORLANDO EXEC   SUNNY     93  59  31 S5G20     29.88S
ORLANDO INTL   MOSUNNY   93  58  30 S14       29.87F
KISSIMMEE      MOSUNNY   93  60  33 SE7       29.88F
WINTER HAVEN   SUNNY     94  56  27 S8        29.88F
LAKELAND       MOSUNNY   93  61  33 S13       29.87F
BARTOW         SUNNY     93  59  31 W8G17     29.87F
OKEECHOBEE     SUNNY     90  68  48 S14       29.89F

$$
FLZ041-047-054-059-064-141-147-272200-
EAST CENTRAL FLORIDA

CITY           SKY/WX    TMP DP  RH WIND       PRES   REMARKS
ORMOND BEACH   SUNNY     84  72  65 SE15G21   29.89S
DAYTONA BEACH  MOSUNNY   85  73  67 E12       29.89R
DELAND         SUNNY     93  57  29 SW10      29.88S
NEW SMYRNA BEA SUNNY     86  72  62 SE20G25   29.90F
JFK SPACE CTR  SUNNY     86  73  64 SE17      29.89S
TITUSVILLE     SUNNY     88  72  58 SE17      29.90F
CAPE CANAVERAL SUNNY     86  75  69 SE20G26   29.89F
PATRICK AFB    SUNNY     83  76  78 SE18      29.89F
MELBOURNE      SUNNY     86  74  67 SE20G28   29.89F
VERO BEACH     SUNNY     86  74  67 SE18G28   29.90F
FT PIERCE      SUNNY     87  74  64 SE18      29.89F HX  95
STUART         MOSUNNY   90  77  66 SE16      29.92  HX 102

STATION/POSITION SKY/WX   TEMP    WIND        PRES    WAVE   SWELL
                          AIR SEA DIR/SP/G            HT/PER HT/PER
                          (F)     (DEG/KT/KT) (MB)    (FT/S) (FT/S)
28.5N   80.2W              78 77  150/ 14/ 17 1013.9F   3/ 8   2/ 8
28.9N   78.5W              78 78  160/ 10/ 12 1014.3F   5/ 8   3/ 8
TRIDENT PIER               81 79  130/ 10/ 14 1014.0F
28.4N   80.5W                 78                N/A     3/ 4
27.5N   80.2W                 77                N/A     3/13   2/13

$$
FLZ050-056-061-142-242-148-248-149-249-151-251-155-255-
160-260-272200-
WEST CENTRAL FLORIDA

CITY           SKY/WX    TMP DP  RH WIND       PRES   REMARKS
CRYSTAL RIVER  FAIR      88  64  45 W13G18    29.89S
INVERNESS      FAIR      91  70  49 W6        29.88S HX  97
BROOKSVILLE    SUNNY     94  55  26 VRB6      29.88F
CLEARWATER AIR FAIR      86  68  54 S12G17    29.89S
ST PETE CLEARW SUNNY     88  68  51 SW16      29.88F
TAMPA INTL     MOSUNNY   88  70  55 S10       29.89F
TAMPA EXEC     SUNNY     93  68  43 SW5       29.88F HX  97
PLANT CITY     MOSUNNY   95  68  41 W13       29.89F HX  99
MACDILL AFB    SUNNY     86  74  68 SW17      29.88F
PETER O KNIGHT SUNNY     90  73  58 SW9       29.88F HX  98
ST PETERSBURG  SUNNY     82  71  69 W13       29.87F
SARASOTA       SUNNY     84  72  67 SW13      29.87F
VENICE         FAIR      82  77  83 S14       29.89F

STATION/POSITION SKY/WX   TEMP    WIND        PRES    WAVE   SWELL
                          AIR SEA DIR/SP/G            HT/PER HT/PER
                          (F)     (DEG/KT/KT) (MB)    (FT/S) (FT/S)
27.3N   84.2W                 75                N/A     3/ 6
CLEARWATER BEACH           78 79  200/ 12/ 14 1012.4F
MIDDLE TAMPA BAY           79     250/ 12/ 14 1012.1F
VENICE                     78 80  180/ 12/ 14 1011.6F

$$
FLZ066-069-070-075>078-162-262-165-265-272200-
SOUTHWEST FLORIDA AND KEYS

CITY           SKY/WX    TMP DP  RH WIND       PRES   REMARKS
PUNTA GORDA    SUNNY     87  70  56 SW16      29.89F
FT MYERS       SUNNY     87  68  52 SW13      29.89F
SOUTHWEST INTL SUNNY     88  67  49 SW18      29.88F
NAPLES         SUNNY     87  65  47 S16       29.89F
MARCO ISLAND   MOSUNNY   88  70  55 SW13      29.91F
IMMOKALEE        N/A     93  61  33 S8        29.87F
MARATHON       SUNNY     86  76  71 SE7       29.91F HX  96
KEY WEST NAS   MOSUNNY   80  76  87 E13       29.90F
KEY WEST INTL  SUNNY     84  76  76 E12       29.91F

STATION/POSITION SKY/WX   TEMP    WIND        PRES    WAVE   SWELL
                          AIR SEA DIR/SP/G            HT/PER HT/PER
                          (F)     (DEG/KT/KT) (MB)    (FT/S) (FT/S)
NAPLES                        80  190/ 12/ 13 1012.6F
26.0N   85.6W              80     160/ 12/ 16 1010.9S   5/ 6   3/ 6
DRY TORTUGAS               80     110/ 11/ 12 1012.3F
SAND KEY                   79     100/ 11/ 13 1013.1F
LONG KEY                   81 83   70/  5/  7 1013.2F
MOLASSES REEF              80 79  160/ 11/ 11 1013.6F

$$
FLZ067-068-071>074-168-172>174-272200-
SOUTHEAST FLORIDA

CITY           SKY/WX    TMP DP  RH WIND       PRES   REMARKS
W PALM BEACH   PTSUNNY   85  73  67 SE18      29.91F
BOCA RATON     MOSUNNY   84  75  74 SE9       29.92F
FT LAUDER-EXEC MOSUNNY   89  72  56 SE14      29.91F HX  96
FT LAUDERDALE  MOSUNNY   86  75  69 SE20      29.91F HX  95
POMPANO BEACH  SUNNY     85  76  74 S16G24    29.91F
PEMBROKE PINES MOSUNNY   87  72  60 SE14      29.92F
OPA LOCKA      SUNNY     86  70  58 S16       29.92F
MIAMI          MOSUNNY   87  72  60 SE13      29.92F
WEST KENDALL   MOSUNNY   89  71  55 SE14      29.91F HX  95
HOMESTEAD      DRIZZLE   88  77  70 SE12      29.91S HX 100

STATION/POSITION SKY/WX   TEMP    WIND        PRES    WAVE   SWELL
                          AIR SEA DIR/SP/G            HT/PER HT/PER
                          (F)     (DEG/KT/KT) (MB)    (FT/S) (FT/S)
PORT EVERGLADES            81     150/ 12/ 17 1013.3F
VIRGINIA KEY               81 80  140/ 14/ 17 1012.7F
LAKE WORTH                 79 80  170/ 17/ 19 1014.1F
FOWEY ROCKS                80 79  150/ 19/ 20 1013.9F
SETTLEMENT POINT           80     180/  9/ 11 1014.0F

$$





USA.gov is the U.S. government's official web portal to all federal, state and local government web resources and services.